Tekamah, NE

2:55 AM CDT on July 23, 2017 (GMT -0500)
Tekamah

Weather History for KTQE - October, 2012

Change the Weather History Date:

Sunday, October 14, 2012

  Actual Average Record
Temperature  
Mean Temperature 56 °F -  
Max Temperature 68 °F 67 °F 87 °F (1958)
Min Temperature 43 °F 40 °F 23 °F (2006)
Degree Days  
Heating Degree Days 8    
Growing Degree Days 6 (Base 50)    
Moisture  
Dew Point 43 °F    
Average Humidity 62    
Maximum Humidity 88    
Minimum Humidity 32    
Precipitation  
Precipitation 0.02 in - - ()
Sea Level Pressure  
Sea Level Pressure 29.82 in    
Wind  
Wind Speed 16 mph (NW)    
Max Wind Speed 22 mph    
Max Gust Speed 30 mph    
Visibility 8 miles    
Events Rain , Thunderstorm    
Averages and records for this station are not official NWS values.
T = Trace of Precipitation, MM = Missing Value Source: NWS Daily Summary

Daily Weather History Graph

Daily Weather History Graph

Search for Another Location

Airport or City:

Trip Planner

Search our weather history database for the weather conditions in past years. The results will help you decide how hot, cold, wet, or windy it might be!

Date:

Astronomy

Oct. 14, 2012 Rise Set
Actual Time 7:36 AM CDT 6:44 PM CDT
Civil Twilight 7:08 AM CDT 7:12 PM CDT
Nautical Twilight 6:36 AM CDT 7:44 PM CDT
Astronomical Twilight 6:03 AM CDT 8:16 PM CDT
Moon 6:36 AM CDT (10/14) 6:04 PM CDT (10/14)
Length of Visible Light 12h 03m
Length of Day
11h 07m
Waning Crescent, 1% of the Moon is Illuminated
Oct 14
Waning Crescent
Oct 15
New
Oct 21
First Quarter
Oct 29
Full
Nov 6
Last Quarter

Hourly Weather History & Observations

Time (CDT) Temp. Windchill Dew Point Humidity Pressure Visibility Wind Dir Wind Speed Gust Speed Precip Events Conditions
12:54 AM 64.0 °F - 57.9 °F 80% 29.60 in 7.0 mi North 18.4 mph - 0.01 in Rain Light Rain
1:54 AM 62.1 °F - 57.0 °F 84% 29.62 in 5.0 mi North 16.1 mph 23.0 mph 0.00 in Rain Light Rain
2:05 AM 60.8 °F - 57.2 °F 88% 29.65 in 5.0 mi North 17.3 mph - 0.00 in Rain , Thunderstorm Light Rain
2:20 AM 60.8 °F - 55.4 °F 82% 29.66 in 7.0 mi North 13.8 mph - 0.00 in   Mostly Cloudy
2:54 AM 60.1 °F - 55.0 °F 83% 29.65 in 6.0 mi North 16.1 mph - 0.00 in Rain Light Rain
3:54 AM 57.0 °F - 52.0 °F 83% 29.68 in 5.0 mi NNW 18.4 mph - 0.00 in   Haze
4:54 AM 55.9 °F - 51.1 °F 84% 29.69 in 5.0 mi NNW 20.7 mph - 0.01 in   Haze
5:54 AM 55.0 °F - 48.9 °F 80% 29.72 in 5.0 mi North 16.1 mph - N/A   Haze
6:54 AM 53.1 °F - 46.9 °F 80% 29.76 in 5.0 mi NNW 15.0 mph - N/A   Haze
7:54 AM 50.0 °F - 43.0 °F 77% 29.80 in 8.0 mi NW 19.6 mph 24.2 mph N/A   Clear
8:54 AM 48.9 °F - 39.0 °F 69% 29.84 in 10.0 mi NW 16.1 mph - N/A   Clear
9:54 AM 52.0 °F - 39.0 °F 61% 29.85 in 9.0 mi NNW 17.3 mph 25.3 mph N/A   Clear
10:54 AM 55.9 °F - 37.9 °F 51% 29.87 in 10.0 mi NNW 20.7 mph 28.8 mph N/A   Clear
11:54 AM 60.1 °F - 36.0 °F 41% 29.88 in 10.0 mi NW 21.9 mph 29.9 mph N/A   Clear
12:54 PM 64.0 °F - 37.9 °F 38% 29.88 in 10.0 mi NNW 20.7 mph 27.6 mph N/A   Clear
1:54 PM 66.0 °F - 36.0 °F 33% 29.88 in 10.0 mi NNW 20.7 mph 29.9 mph N/A   Clear
2:54 PM 68.0 °F - 37.0 °F 32% 29.89 in 10.0 mi NW 17.3 mph 28.8 mph N/A   Clear
3:54 PM 68.0 °F - 37.0 °F 32% 29.90 in 10.0 mi NW 18.4 mph - N/A   Clear
4:54 PM 66.9 °F - 36.0 °F 32% 29.91 in 10.0 mi NW 15.0 mph - N/A   Clear
5:54 PM 64.9 °F - 37.0 °F 36% 29.92 in 10.0 mi WNW 15.0 mph - N/A   Clear
6:54 PM 57.9 °F - 36.0 °F 44% 29.94 in 10.0 mi NW 6.9 mph - N/A   Clear
7:54 PM 55.0 °F - 37.0 °F 51% 29.94 in 10.0 mi WNW 4.6 mph - N/A   Clear
8:54 PM 48.9 °F - 37.0 °F 64% 29.96 in 10.0 mi West 4.6 mph - N/A   Clear
9:54 PM 45.0 °F 41.8 °F 36.0 °F 71% 29.96 in 10.0 mi West 5.8 mph - N/A   Clear
10:54 PM 46.9 °F - 36.0 °F 66% 29.96 in 10.0 mi Calm Calm - N/A   Clear
11:54 PM 43.0 °F 41.3 °F 35.1 °F 74% 29.97 in 10.0 mi West 3.5 mph - N/A   Clear